Location: South Range
(44.4886°N, 65.7879°W)
Time: 04:01:02
(UTC-04:00)

Iridium 56 - Visible Passes

Search period start: 18 January 2017 00:00
Search period end: 28 January 2017 00:00
Orbit: 776 x 779 km, 86.4° (Epoch: 17 January)

Date Brightness Start Highest point End Pass type
(mag) Time Alt. Az. Time Alt. Az. Time Alt. Az.
18 Jan 8.3 06:13:55 10° NE 06:16:41 14° ENE 06:19:27 10° ESE visible
19 Jan 6.2 07:19:19 10° N 07:24:30 61° E 07:29:39 10° SSE visible
20 Jan 7.3 06:46:05 10° NNE 06:50:51 34° E 06:55:34 10° SE visible
20 Jan 7.6 19:44:17 10° S 19:44:59 14° S 19:44:59 14° S visible
21 Jan 8.1 06:13:14 10° NNE 06:17:03 20° ENE 06:20:50 10° ESE visible
21 Jan 6.9 19:11:17 10° SSE 19:13:15 21° SE 19:13:15 21° SE visible
21 Jan 7.9 20:52:28 10° SW 20:53:51 16° WSW 20:53:51 16° WSW visible
22 Jan 8.6 05:41:31 10° NE 05:43:06 11° ENE 05:44:41 10° E visible
22 Jan 6.7 18:38:53 10° SE 18:41:58 21° E 18:41:58 21° E visible
22 Jan 6.4 20:18:07 10° SSW 20:30:23 - N 20:22:37 46° W visible
23 Jan 6.6 06:45:59 10° N 06:51:04 49° E 06:56:05 10° SSE visible
23 Jan 7.2 18:07:37 10° E 18:09:38 12° ENE 18:11:39 10° NE visible
23 Jan 5.4 19:44:20 10° S 19:49:33 85° W 19:54:48 10° N visible
23 Jan 8.5 21:29:46 10° W 21:31:07 11° WNW 21:32:29 10° NW visible
24 Jan 7.6 06:12:52 10° NNE 06:17:20 28° ENE 06:21:46 10° SE visible
24 Jan 5.5 19:11:02 10° SSE 19:16:05 54° E 19:21:10 10° NNE visible
24 Jan 7.9 20:53:26 10° WSW 20:57:10 20° WNW 21:00:55 10° NNW visible
25 Jan 8.4 05:40:17 10° NE 05:43:29 16° ENE 05:46:40 10° ESE visible
25 Jan 6.2 18:38:14 10° SE 18:42:44 30° E 18:47:15 10° NNE visible
25 Jan 7.1 20:18:40 10° SW 20:23:22 34° W 20:28:06 10° NNW visible
26 Jan 5.9 06:46:00 10° N 06:51:14 70° E 06:56:25 10° S visible
26 Jan 6.9 18:06:09 10° ESE 18:09:30 18° ENE 18:12:52 10° NE visible
26 Jan 6.0 19:44:33 10° SSW 19:49:41 60° W 19:54:52 10° N visible
27 Jan 7.0 06:12:42 10° NNE 06:17:35 39° E 06:22:26 10° SSE visible
27 Jan 5.4 19:10:57 10° S 19:16:08 77° E 19:21:23 10° N visible
27 Jan 8.4 20:54:52 10° WSW 20:57:31 14° WNW 21:00:12 10° NW visible
